Weather History for Vernal, UT

Change the Weather History Date:

Friday, August 15, 2014

  Actual Average Record
Temperature  
Mean Temperature 73 °F 71 °F  
Max Temperature 88 °F 86 °F 98 °F (1939)
Min Temperature 58 °F 56 °F 38 °F (1949)
Degree Days  
Heating Degree Days 0 0  
Month to date heating degree days 0 0  
Since 1 June heating degree days 33 78  
Since 1 July heating degree days 0 6  
Cooling Degree Days 8 6  
Month to date cooling degree days 93 105  
Year to date cooling degree days 549 423  
Since 1 June cooling degree days 526 414  
Growing Degree Days 24 (Base 50)    
Moisture  
Dew Point 51 °F    
Average Humidity 54    
Maximum Humidity 84    
Minimum Humidity 24    
Precipitation  
Precipitation 0.00 in 0.03 in 0.60 in (1935)
Month to date precipitation 0.23 0.34  
Year to date precipitation 2.96 5.19  
Sea Level Pressure  
Sea Level Pressure 29.99 in    
Wind  
Wind Speed 7 mph (WSW)    
Max Wind Speed 20 mph    
Max Gust Speed 26 mph    
Visibility 10 miles    
Events Thunderstorm    
T = Trace of Precipitation, MM = Missing Value Source: NWS Daily Summary

Daily Weather History Graph

Daily Weather History Graph

Search for Another Location

Airport:

Trip Planner

Search our weather history database for the weather conditions in past years. The results will help you decide how hot, cold, wet, or windy it might be!

Date:

Astronomy

Aug. 15, 2014 Rise Set
Actual Time 6:28 AM MDT 8:15 PM MDT
Civil Twilight 5:59 AM MDT 8:44 PM MDT
Nautical Twilight 5:24 AM MDT 9:19 PM MDT
Astronomical Twilight 4:46 AM MDT 9:57 PM MDT
Moon 11:18 PM MDT (8/15) 12:16 PM MDT (8/15)
Length of Visible Light 14h 44m
Length of Day
13h 46m
Waning Gibbous, 68% of the Moon is Illuminated
Aug 15
Waning Gibbous
Aug 17
Last Quarter
Aug 25
New
Sep 2
First Quarter
Sep 8
Full

Hourly Weather History & Observations

Time (MDT) Temp. Heat Index Dew Point Humidity Pressure Visibility Wind Dir Wind Speed Gust Speed Precip Events Conditions
12:53 AM 64.9 °F - 55.9 °F 73% 29.98 in 10.0 mi WNW 4.6 mph - N/A   Clear
1:53 AM 64.0 °F - 55.0 °F 73% 29.98 in 10.0 mi WNW 3.5 mph - N/A   Clear
2:53 AM 60.1 °F - 55.0 °F 83% 29.98 in 10.0 mi Calm Calm - N/A   Clear
3:53 AM 62.1 °F - 55.0 °F 78% 29.98 in 10.0 mi WNW 3.5 mph - N/A   Partly Cloudy
4:53 AM 61.0 °F - 54.0 °F 78% 29.99 in 10.0 mi West 3.5 mph - N/A   Clear
5:53 AM 59.0 °F - 54.0 °F 83% 30.00 in 10.0 mi WNW 3.5 mph - N/A   Clear
6:53 AM 59.0 °F - 53.1 °F 81% 30.02 in 10.0 mi WSW 3.5 mph - N/A   Clear
7:53 AM 64.9 °F - 55.0 °F 70% 30.02 in 10.0 mi Calm Calm - N/A   Clear
8:53 AM 66.9 °F - 57.0 °F 70% 30.04 in 10.0 mi Variable 3.5 mph - N/A   Clear
9:53 AM 71.1 °F - 57.9 °F 63% 30.04 in 10.0 mi ESE 3.5 mph - N/A   Clear
10:53 AM 73.9 °F - 57.9 °F 57% 30.04 in 10.0 mi South 5.8 mph - N/A   Clear
11:53 AM 77.0 °F - 57.0 °F 50% 30.02 in 10.0 mi SE 4.6 mph - N/A   Clear
12:53 PM 81.0 °F 80.7 °F 55.0 °F 41% 29.98 in 10.0 mi Calm Calm - N/A   Clear
1:53 PM 84.0 °F - 46.9 °F 27% 29.96 in 10.0 mi SW 10.4 mph - N/A   Clear
2:53 PM 87.1 °F - 46.0 °F 24% 29.92 in 10.0 mi SSW 15.0 mph - N/A   Partly Cloudy
3:53 PM 88.0 °F - 46.9 °F 24% 29.90 in 10.0 mi WSW 12.7 mph 25.3 mph N/A   Partly Cloudy
4:29 PM 87.1 °F - 50.0 °F 28% 30.11 in 10.0 mi South 16.1 mph 21.9 mph N/A Thunderstorm Partly Cloudy
4:44 PM 86.0 °F - 50.0 °F 29% 30.11 in 10.0 mi SSW 12.7 mph 21.9 mph N/A   Partly Cloudy
4:53 PM 86.0 °F - 50.0 °F 29% 29.90 in 10.0 mi SW 11.5 mph - N/A   Clear
5:53 PM 84.0 °F - 44.1 °F 25% 29.92 in 10.0 mi East 18.4 mph - N/A   Clear
6:09 PM 82.9 °F - 44.1 °F 25% 30.11 in 10.0 mi ENE 16.1 mph 23.0 mph N/A   Clear
6:53 PM 79.0 °F - 46.0 °F 31% 29.94 in 10.0 mi NE 17.3 mph 26.5 mph N/A   Mostly Cloudy
7:53 PM 77.0 °F - 42.1 °F 29% 29.94 in 10.0 mi NE 10.4 mph - N/A   Clear
8:53 PM 71.1 °F - 48.0 °F 44% 29.96 in 10.0 mi ENE 5.8 mph - N/A   Clear
9:53 PM 66.9 °F - 48.9 °F 52% 29.98 in 10.0 mi West 4.6 mph - N/A   Clear
11:53 PM 68.0 °F - 45.0 °F 43% 29.95 in 10.0 mi NNW 4.6 mph - N/A   Clear